Home > Weather > Damascus > Past weeks

Flag for Syria Weather for the Past 2 Weeks in Damascus, Syria

Now
88 °F

Sunny.


Feels Like: 84 °F
Forecast: 47 / 76 °F
Wind: 18 mph from Northwest

Location: Damascus Int. Airport

Current Time: May 3, 2016 at 2:34:02 PM

Latest Report: May 3, 2016 at 2:00 PM


Visibility: 10 mi

Pressure: 29.89 "Hg (27.66 "Hg at 689m altitude)

Humidity: 18%

Dew Point: 39 °F

Location of DamascusLocation

Historic Weather in Damascus — Graph

°F

Damascus Temperature Yesterday

Maximum temperature yesterday: 88 °F (at 4:00 PM)
Minimum temperature yesterday: 59 °F (at 6:00 AM)
Average temperature yesterday: 72 °F

High & Low Weather Summary for the Past Weeks

 TemperatureHumidityPressure
High93 °F (Apr 26, 3:00 PM)82% (Apr 29, 4:00 AM)30.12 "Hg (Apr 29, 4:00 AM)
Low45 °F (Apr 30, 6:00 AM)5% (Apr 23, 3:00 PM)29.74 "Hg (Apr 24, 6:00 PM)
Average72 °F28%29.95 "Hg
* Reported Apr 18 1:00 PM — May 3 1:00 PM, Damascus, Weather by CustomWeather, © 2016

Note: Actual official high and low records may vary slightly from our data, if they occured in-between our weather recording intervals... More about our weather records

Advertising

Damascus Weather History for the Previous 24 Hours

Scroll right to see more
 ConditionsComfort  
Time TempWeatherWind HumidityBarometerVisibility
1:00 PM
Tue, May 3
86 °FSunny.9 mph17%29.92 "Hg10 mi
12:00 PM86 °FSunny.7 mph17%29.92 "Hg10 mi
11:00 AM82 °FScattered clouds.12 mph20%29.95 "HgN/A
10:00 AM75 °FPartly sunny.12 mph27%29.95 "HgN/A
9:00 AM73 °FBroken clouds.12 mph33%29.95 "HgN/A
8:00 AM68 °FScattered clouds.12 mph43%29.92 "HgN/A
7:00 AM63 °FSunny.9 mph56%29.92 "Hg10 mi
6:00 AM63 °FClear.12 mph56%29.89 "Hg10 mi
5:00 AM63 °FClear.14 mph56%29.89 "Hg10 mi
4:00 AM63 °FClear.12 mph59%29.89 "Hg10 mi
3:00 AM63 °FClear.16 mph59%29.89 "Hg10 mi
2:00 AM63 °FClear.18 mph59%29.89 "Hg10 mi
1:00 AM64 °FClear.16 mph56%29.89 "Hg10 mi
12:00 AM64 °FClear.23 mph60%29.92 "Hg10 mi
11:00 PM
Mon, May 2
66 °FClear.21 mph60%29.92 "Hg10 mi
10:00 PM68 °FClear.16 mph53%29.89 "Hg10 mi
9:00 PM70 °FClear.21 mph50%29.89 "Hg10 mi
8:00 PM75 °FSunny.18 mph36%29.86 "Hg10 mi
7:00 PM81 °FSunny.14 mph26%29.86 "Hg10 mi
6:00 PM84 °FSunny.18 mph20%29.83 "Hg10 mi
5:00 PM88 °FSunny.23 mph19%29.83 "Hg10 mi
4:00 PM88 °FSunny.18 mph21%29.83 "Hg10 mi
3:00 PM86 °FSunny.16 mph24%29.83 "Hg10 mi
2:00 PM84 °FSunny.18 mph25%29.83 "Hg10 mi
Weather by CustomWeather, © 2016

See weather overviewHow to use our weather pages